ISS DEB

基本信息
目录编号:
57599
目录名称:
ISS DEB
国际标识:
1998-067VY
轨道中心:
EARTH
物体状态:
已陨落(2023-10-11)
发射日期:
1998-11-20 UTC
轨道信息
数据来源: 国际轨道数据
星历时间: 2023-10-07T16:24:04+0800
半长轴: 6555.835km
偏心率: 0.0010642
轨道倾角: 51.617°
近地点辐角: 260.250°
升交点赤经: 127.385°
平近点角: 99.732°
近地点: 170.723km
远地点: 184.677km
周期: 88.044分钟
每日圈数: 16.355385
详细信息
发射场:
TTMTR
轨道高度:
LEO
数据来源:
AOE Integration Group
参考系:
TEME
时间系统:
UTC
历元类型:
SGP4
2D轨道图
3D轨道图
轨道高度分析图
轨道倾角分析图
轨道综合分析图
查看轨道综合分析图